Location: Multiple Mirror Telescope
(31.6889°N, 110.8853°W)
Time: 13:09:54
(UTC-07:00)

Tiangong - Visible Passes

Search period start: 20 May 2025 00:00
Search period end: 30 May 2025 00:00
Orbit: 377 x 385 km, 41.5° (Epoch: 20 May)

Date Brightness Start Highest point End Pass type
(mag) Time Alt. Az. Time Alt. Az. Time Alt. Az.
20 May 0.9 02:54:05 14° N 02:54:06 14° N 02:55:52 10° NNE visible
20 May 0.5 04:29:11 10° NW 04:31:38 20° NNE 04:34:04 10° ENE visible
21 May 0.8 03:28:34 10° NNW 03:30:37 16° N 03:32:40 10° NE visible
22 May 1.3 02:30:26 13° NNE 02:30:26 13° NNE 02:31:18 10° NE visible
22 May 0.0 04:04:09 10° NW 04:06:56 28° NNE 04:09:44 10° E visible
23 May 0.4 03:04:57 17° N 03:05:54 20° NNE 03:08:18 10° ENE visible
23 May -2.1 04:39:47 10° WNW 04:42:57 87° NNE 04:46:06 10° ESE visible
24 May -1.0 03:39:51 17° NW 03:42:01 44° NNE 03:45:03 10° E visible
25 May 0.9 02:43:03 14° ENE 02:43:03 14° ENE 02:43:43 10° E visible
25 May -1.9 04:15:18 14° WNW 04:17:47 45° SW 04:20:50 10° SE visible
25 May -1.4 20:45:06 10° SW 20:47:20 34° S 20:47:20 34° S visible
26 May 0.2 03:19:07 17° ESE 03:19:07 17° ESE 03:20:00 10° ESE visible
26 May 0.0 04:52:21 10° WSW 04:53:14 11° SW 04:54:08 10° SSW visible
26 May -0.7 19:44:50 10° S 19:47:11 20° SE 19:49:32 10° E visible
26 May -1.1 21:20:44 10° W 21:23:35 45° NW 21:23:35 45° NW visible
27 May -2.3 20:19:34 10° WSW 20:22:40 87° SSE 20:25:48 10° ENE visible
27 May 0.7 21:57:17 10° WNW 21:59:04 19° NNW 21:59:04 19° NNW visible
28 May -0.1 20:55:38 10° W 20:58:24 28° NNW 21:01:12 10° NE visible
29 May -1.2 19:54:08 10° WSW 19:57:10 49° NNW 20:00:13 10° NE visible
29 May 0.8 21:32:20 10° NW 21:34:22 16° N 21:36:04 11° NNE visible
